User: anonymous   Login
Location: Utrecht
(52.0830°N, 5.1330°E)
Time: 08:17:06
(UTC+02:00)
Language:

Cosmos 1092 Rocket - Orbit

View from above orbital plane
View from above orbital plane
View from above satellite
View from above satellite

Ground track
Ground track

The orbit data is extracted from the following two-line orbital elements,

1 11327U 79030B   16236.86986707 +.00000049 +00000-0 +33987-4 0  9999
2 11327 082.9525 156.6266 0026433 293.6804 097.5202 13.76967251878015
Epoch (UTC): 23 August 2016 20:52:36
Eccentricity: 0.0026433
inclination: 82.9525°
perigee height: 955 km
apogee height: 994 km
right ascension of ascending node: 156.6266°
argument of perigee: 293.6804°
revolutions per day: 13.76967251
mean anomaly at epoch: 97.5202°
orbit number at epoch: 87801

The dashed part of the orbit path shows where the satellite is in the earth's shadow,  

DLR